This is the latest recevied weather packets stored in our database for station/object NorthRyde. If no packets are shown the sender has not sent any weather packets the latest 10 day(s).
| Time | Temp. | Humidity | Pressure | Rain* | Wind** | Luminosity | Snow |
|---|---|---|---|---|---|---|---|
| 1777694711 | 24.44° C | 68% | 1024.1 hPa | 0 mm | - | 564 W/m² | - |
| 1777694651 | 24.44° C | 68% | 1024.1 hPa | 0 mm | - | 564 W/m² | - |
| 1777694588 | 24.44° C | 68% | 1024.1 hPa | 0 mm | - | 271 W/m² | - |
| 1777694537 | 24.44° C | 68% | 1024 hPa | 0 mm | - | 271 W/m² | - |
| 1777694482 | 23.89° C | 68% | 1024.1 hPa | 0 mm | - | 271 W/m² | - |
| 1777694410 | 24.44° C | 67% | 1024 hPa | 0 mm | - | 271 W/m² | - |
| 1777694349 | 24.44° C | 67% | 1024.1 hPa | 0 mm | - | 279 W/m² | - |
| 1777694290 | 24.44° C | 67% | 1024.1 hPa | 0 mm | - | 339 W/m² | - |
| 1777694236 | 24.44° C | 66% | 1024.2 hPa | 0 mm | - | 292 W/m² | - |
| 1777694178 | 24.44° C | 66% | 1024.1 hPa | 0 mm | - | 225 W/m² | - |
| 1777694109 | 24.44° C | 67% | 1024.2 hPa | 0 mm | - | 234 W/m² | - |
| 1777694050 | 24.44° C | 66% | 1024 hPa | 0 mm | - | 230 W/m² | - |
| 1777693990 | 24.44° C | 66% | 1024 hPa | 0 mm | - | 236 W/m² | - |
| 1777693937 | 24.44° C | 66% | 1024 hPa | 0 mm | - | 243 W/m² | - |
| 1777693874 | 24.44° C | 66% | 1024.1 hPa | 0 mm | - | 239 W/m² | - |
| 1777693808 | 24.44° C | 65% | 1024.2 hPa | 0 mm | - | 338 W/m² | - |
| 1777693749 | 25° C | 65% | 1024.2 hPa | 0 mm | - | 338 W/m² | - |
| 1777693690 | 25° C | 66% | 1024.2 hPa | 0 mm | - | 362 W/m² | - |
| 1777693636 | 25° C | 66% | 1024.2 hPa | 0 mm | - | 462 W/m² | - |
| 1777693574 | 25° C | 66% | 1024.1 hPa | 0 mm | - | 598 W/m² | - |
| 1777693510 | 25° C | 66% | 1024 hPa | 0 mm | - | 598 W/m² | - |
| 1777693448 | 25° C | 67% | 1024.2 hPa | 0 mm | - | 598 W/m² | - |
| 1777693390 | 24.44° C | 67% | 1024.1 hPa | 0 mm | - | 708 W/m² | - |
| 1777693335 | 24.44° C | 68% | 1024.1 hPa | 0 mm | - | 708 W/m² | - |
| 1777693271 | 24.44° C | 67% | 1024.1 hPa | 0 mm | - | 724 W/m² | - |
* Rain latest hour (hover to see other rain measurements)
** Current wind speed in m/s (hover to see current wind gust speed)